Regional Weather Roundup
Issued by NWS

Home | Current Version | Previous Version | Graphics & Text | Print | Product List | Glossary On
Versions: 1 2 3 4 5 6 7 8 9 10 11 12 13 14 15 16 17 18 19 20 21 22 23 24 25 26 27 28 29 30 31 32 33 34 35 36 37 38 39 40 41 42 43 44 45 46 47 48 49 50
801
ASUS43 KIND 281859
RWRIN

WEATHER ROUNDUP FOR INDIANA
NATIONAL WEATHER SERVICE INDIANAPOLIS IN
300 PM EDT WED JUN 28 2017

NOTE: "FAIR" INDICATES FEW OR NO CLOUDS BELOW 12,000 FEET WITH NO
SIGNIFICANT WEATHER AND/OR OBSTRUCTIONS TO VISIBILITY.

* - STATION DOES NOT REPORT WEATHER SUCH AS PRECIPITATION OR FOG.

+ - STATION NOT QUALITY CONTROLLED BY THE NATIONAL WEATHER SERVICE.
    USE DATA WITH CAUTION...ESPECIALLY DEWPOINT AND RELATIVE
    HUMIDITY OBSERVATIONS.

INZ001>003-010>013-019-020-282000-
NORTHWEST INDIANA

CITY           SKY/WX    TMP DP  RH WIND       PRES   REMARKS
GARY /AIRPORT/ CLOUDY    73  57  56 SE12G23   29.92F
MICHIGAN CITY+ CLOUDY    72  55  56 S12G17    29.95F
MONTICELLO +   CLOUDY    77  55  46 S14G22    30.01F
RENSSELAER +   CLOUDY    77  52  41 S16G22    29.98F

$$

LMZ046-743>745-282000-
SOUTHERN LAKE MICHIGAN

STATION/POSITION TIME  TEMP    WIND        PRES    WAVE
                       AIR SEA DIR/SP/G            HT
                 (UTC) (F)     (DEG/KT/KT) (MB)    (FT)
BURNS HARBOR     1840   73     170/ 11/ 20 1013.9F
MICHIGAN CITY    1830   72     140/ 16/ 21   N/A
5NW MICH CITY    1850   71 66  170/ 17/ 21   N/A     2

$$

INZ004-005-014>016-021>024-282000-
NORTH CENTRAL INDIANA

CITY           SKY/WX    TMP DP  RH WIND       PRES   REMARKS
ELKHART        CLOUDY    75  54  46 S12G18    30.03F
GOSHEN         CLOUDY    75  51  43 SW16      30.04F
SOUTH BEND     CLOUDY    73  55  53 S13       29.99F

$$

INZ006>009-017-018-025>027-282000-
NORTHEAST INDIANA

CITY           SKY/WX    TMP DP  RH WIND       PRES   REMARKS
ANGOLA *+      PTSUNNY   75  70  83 SW14      30.05F
FORT WAYNE     CLOUDY    76  51  41 S15       30.07F
KENDALLVILLE + CLOUDY    75  51  44 SW13      30.06F

$$

INZ028-029-035-036-043>045-051>053-282000-
WEST CENTRAL INDIANA

CITY           SKY/WX    TMP DP  RH WIND       PRES   REMARKS
CRAWFORDSVL +  PTSUNNY   76  57  51 S13G20    30.04F
GREENCASTLE +  CLOUDY    77  55  47 S12       30.06F
LAFAYETTE      CLOUDY    77  59  53 S14G20    30.00F
TERRE HAUTE    MOSUNNY   82  57  42 S15G24    30.02F

$$

INZ030>032-037>040-046>048-054>057-064-065-282000-
CENTRAL INDIANA

CITY           SKY/WX    TMP DP  RH WIND       PRES   REMARKS
ANDERSON       SUNNY     79  52  38 MISG        N/A  VSB 1/8
COLUMBUS       MOSUNNY   79  46  31 S13G18    30.09F
GREENWOOD *+   PTSUNNY   78  50  37 SW10      30.08F
INDIANAPOLIS   CLOUDY    78  56  46 SW14G25   30.05F
-EAGLE CREEK   CLOUDY    78  55  44 S10G18    30.05F
KOKOMO +       CLOUDY    78  53  41 S17       30.06F
MT COMFORT *+  PTSUNNY   77  54  44 SW14G20   30.09F
SHELBYVILLE    MOSUNNY   79  52  38 SW9       30.07F

$$

INZ033-034-041-042-049-050-058-059-282000-
EAST CENTRAL INDIANA

CITY           SKY/WX    TMP DP  RH WIND       PRES   REMARKS
MUNCIE         CLOUDY    78  51  38 S13G21    30.08F
RICHMOND +     SUNNY     77  52  41 S14G22    30.12F

$$

INZ060-061-067>069-081>083-085>088-282000-
SOUTHWEST INDIANA

CITY           SKY/WX    TMP DP  RH WIND       PRES   REMARKS
EVANSVILLE     CLOUDY    83  56  39 S10       30.05F
HUNTINGBURG *+ CLOUDY    82  60  47 S10       30.07F

$$

INZ062-063-066-070>080-084-089>092-282000-
SOUTH CENTRAL AND SOUTHEAST INDIANA

CITY           SKY/WX    TMP DP  RH WIND       PRES   REMARKS
BLOOMINGTON    CLOUDY    81  55  40 S14G21    30.07F
MADISON *+     SUNNY     81  46  30 S6        30.12F

$$





USA.gov is the U.S. government's official web portal to all federal, state and local government web resources and services.